Regional Weather Roundup
Issued by NWS

Home | Current Version | Previous Version | Graphics & Text | Print | Product List | Glossary On
Versions: 1 2 3 4 5 6 7 8 9 10 11 12 13 14 15 16 17 18 19 20 21 22 23 24 25 26 27 28 29 30 31 32 33 34 35 36 37 38 39 40 41 42 43 44 45 46 47 48 49
000
ASUS43 KDMX 050507
RWRIA

WEATHER ROUNDUP FOR IOWA
NATIONAL WEATHER SERVICE DES MOINES IA
1200 AM CDT WED AUG 05 2015

NOTE: "FAIR" INDICATES FEW OR NO CLOUDS BELOW 12,000 FEET WITH NO
SIGNIFICANT WEATHER AND/OR OBSTRUCTIONS TO VISIBILITY.

* - THESE STATIONS ARE NOT NWS STATIONS...THUS NOT UNDER NWS
QUALITY CONTROL.  THEY ALSO DO NOT REPORT WEATHER SUCH
AS PRECIPITATION OR FOG.

IAZ001>003-012>014-020>022-031>034-043>046-050600-
   NORTHWEST IOWA

CITY           SKY/WX    TMP DP  RH WIND       PRES   REMARKS
CARROLL *      CLOUDY    68  64  88 SE6       30.02R
CHEROKEE *     CLOUDY    64  64 100 E7        30.02R
DENISON *      CLOUDY    68  63  83 E9G16     29.99R
LE MARS *      CLEAR     70  64  83 CALM      30.02R
ORANGE CITY *  CLEAR     64  63  94 E5        30.02S
SHELDON *      PTCLDY    64  61  88 E6        30.02S
SIOUX CITY     CLOUDY    68  62  81 SE9       30.00S
SPENCER        MOCLDY    62  57  83 E3        30.03F
STORM LAKE *   CLOUDY    66  63  88 E6        30.04R
$$

IAZ055>058-069>071-079>083-090>094-050600-
   SOUTHWEST IOWA

CITY           SKY/WX    TMP DP  RH WIND       PRES   REMARKS
ATLANTIC *     PTCLDY    68  64  88 NE7       30.00R
AUDUBON *      PTCLDY    66  63  88 E5        30.02F
CLARINDA *     CLEAR     70  70 100 CALM      30.00R
COUNCIL BLFS * CLEAR     68  66  94 E7        29.97S
CRESTON *      CLEAR     68  66  94 E7        30.02S
HARLAN  *      MOCLDY    68  68 100 E8        30.02S
LAMONI         MOCLDY    70  68  93 E6        30.00F
RED OAK *      PTCLDY    70  68  94 CALM      29.98R
SHENANDOAH *   CLEAR     70  70 100 E5        29.97S
$$

IAZ047>049-059>061-072>074-084-050600-
   CENTRAL IOWA

CITY           SKY/WX    TMP DP  RH WIND       PRES   REMARKS
AMES           MOCLDY    66  64  93 CALM      30.02S
ANKENY *       CLOUDY    70  64  83 SE5       30.01S
CHARITON *     CLOUDY    70  66  88 SE6       30.02S
DES MOINES     LGT RAIN  72  63  73 SE7       30.02R
GRINNELL*      MOCLDY    64  63  94 E3        30.04S
KNOXVILLE *    DRIZZLE   68  64  88 SE6       30.01R
MARSHALLTOWN   PTCLDY    65  60  84 E3        30.03R
PELLA *        CLOUDY    69  66  91 SE3       30.03S
PERRY *        LGT RAIN  70  66  88 SE3       30.02R
$$

IAZ004>006-015-016-023>025-035-036-050600-
   NORTH CENTRAL IOWA

CITY           SKY/WX    TMP DP  RH WIND       PRES   REMARKS
ALGONA *       CLEAR     63  57  82 SE5       30.04R
CLARION *      CLEAR     61  57  88 E8        30.03S
ESTHERVILLE    MOCLDY    58  55  90 E3        30.03S
FORT DODGE *   MOCLDY    63  55  77 E6        30.04R
MASON CITY     PTCLDY    56  54  93 CALM      30.06S
FOREST CITY *  CLEAR     55  55 100 CALM      30.04S
IOWA FALLS *     N/A     63  55  77 E3        30.05R
$$

IAZ007>011-017>019-026>030-037>042-050>054-066-050600-
   NORTHEAST IOWA

CITY           SKY/WX    TMP DP  RH WIND       PRES   REMARKS
CEDAR RAPIDS   PTCLDY    66  59  78 E7        30.03S
CHARLES CITY * CLEAR     59  59 100 NE3       30.05S
CLINTON *      CLEAR     61  57  88 S3        30.07R
DECORAH *      CLEAR     63  55  77 CALM      30.04S
DUBUQUE        CLEAR     60  53  77 CALM      30.05S
MONTICELLO *   CLEAR     57  55  94 CALM      30.04S
OELWEIN *      CLEAR     61  57  88 NE6       30.05S
WATERLOO       MOCLDY    60  58  92 CALM      30.02F
$$

IAZ064-065-067-068-078-050600-
   EAST CENTRAL IOWA

CITY           SKY/WX    TMP DP  RH WIND       PRES   REMARKS
DAVENPORT      CLEAR     64  61  90 CALM      30.04F
IOWA CITY      PTCLDY    67  64  90 S3        30.04S
MT. PLEASANT * PTCLDY    68  63  83 CALM      30.04R
MUSCATINE *    PTCLDY    64  63  94 CALM      30.04R
QUAD CITIES    CLEAR     64  61  90 S3        30.03F
$$

IAZ062-063-075>077-085>089-095>099-050600-
   SOUTHEAST IOWA

CITY           SKY/WX    TMP DP  RH WIND       PRES   REMARKS
BURLINGTON     MOCLDY    66  64  93 CALM      30.04R
FAIRFIELD *    MOCLDY    64  63  94 CALM      30.04R
FORT MADISON * MOCLDY    66  64  94 CALM      30.05R
KEOKUK *       CLEAR     68  68 100 CALM      30.03S
OSKALOOSA *    CLOUDY    64  64 100 E5        30.03S
CENTERVILLE *  PTCLDY    68  66  94 E6        30.04R
OTTUMWA        CLOUDY    68  65  90 E7        30.01F
WASHINGTON *   PTCLDY    64  63  94 CALM      30.05S
$$

ABBREVIATIONS USED IN REMARKS
   TC - TEMPERATURES IN CELSIUS
  WCI - WIND CHILL INDEX
   HX - HEAT INDEX
  VSB - VISIBILITY
$$



USA.gov is the U.S. government's official web portal to all federal, state and local government web resources and services.